contact:dominique.lefevre@mio.osupytheas.fr, maurice.libes@osupytheas.fr, didier.mallarino@osupytheas.fr
Project:EMSO http://www.emso-fr.org/EMSO-France
Depth: 2436.0 m
Title:EMSO Ligure Ouest : Data MII capteur AQUADOPP
Date,Latitude,Longitude,X_East,Y_North,Z_Up,Amplitude_X,Amplitude_Y,Amplitude_Z,Batterie,SoundSpeed,Heading,Pitch,Roll,Pressure,TIS,Speed,Direction
, degrees North, degrees East, m.s-1, m.s-1,m.s-1, 1, 1, 1, Volt, m.s-1, degree, degree, degree, dbar, degree_C, m.s-1, degree
2021-06-07T00:04:03,42.805,6.029,-0.018,-0.009,-0.04,101.0,103.0,100.0,13.3,1505.2,328.3,-0.7,1.8,2470.294,13.29,0.02,243.4
2021-06-07T00:07:03,42.805,6.029,-0.021,-0.005,0.019,104.0,102.0,101.0,13.4,1505.2,330.1,-0.8,1.9,2470.327,13.29,0.021,256.6
2021-06-07T00:10:03,42.805,6.029,-0.019,0.014,0.034,99.0,102.0,100.0,13.3,1505.2,328.1,-0.8,1.8,2470.33,13.29,0.023,306.4
2021-06-07T00:13:03,42.805,6.029,0.02,-0.017,0.025,101.0,101.0,100.0,13.4,1505.2,328.9,-0.8,1.8,2470.18,13.29,0.026,130.4
2021-06-07T00:16:03,42.805,6.029,-0.008,-0.003,0.019,101.0,101.0,100.0,13.3,1505.2,326.4,-0.8,1.8,2470.184,13.29,0.008,249.4
2021-06-07T00:19:03,42.805,6.029,-0.018,-0.004,-0.002,101.0,100.0,100.0,13.4,1505.2,328.1,-0.7,1.8,2470.175,13.29,0.018,257.5
2021-06-07T00:22:03,42.805,6.029,-0.017,-0.03,-0.023,101.0,104.0,100.0,13.3,1505.2,326.0,-0.8,1.8,2470.263,13.29,0.034,209.5
2021-06-07T00:25:03,42.805,6.029,-0.013,-0.001,0.013,100.0,101.0,100.0,13.3,1505.2,328.8,-0.7,1.8,2470.243,13.29,0.013,265.6
2021-06-07T00:28:03,42.805,6.029,-0.025,0.0,-0.01,101.0,101.0,101.0,13.3,1505.2,328.1,-0.7,1.8,2470.253,13.29,0.025,270.0
2021-06-07T00:31:03,42.805,6.029,-0.007,-0.027,-0.016,100.0,101.0,99.0,13.4,1505.2,327.3,-0.7,1.8,2470.308,13.29,0.027,194.5
2021-06-07T00:34:03,42.805,6.029,-0.021,-0.01,-0.016,100.0,102.0,100.0,13.4,1505.2,326.7,-0.7,1.8,2470.299,13.29,0.023,244.5
2021-06-07T00:37:03,42.805,6.029,-0.008,-0.017,-0.01,100.0,100.0,101.0,13.4,1505.2,329.7,-0.7,1.8,2470.355,13.29,0.018,205.2
2021-06-07T00:40:03,42.805,6.029,-0.012,-0.023,-0.016,102.0,100.0,100.0,13.3,1505.2,324.5,-0.8,1.9,2470.436,13.29,0.025,207.6
2021-06-07T00:43:03,42.805,6.029,-0.024,0.001,0.002,102.0,103.0,99.0,13.4,1505.2,326.0,-0.8,1.8,2470.57,13.29,0.024,272.4
2021-06-07T00:46:03,42.805,6.029,-0.012,0.001,0.042,99.0,100.0,102.0,13.4,1505.2,324.6,-0.8,1.8,2470.669,13.29,0.012,274.8
2021-06-07T00:49:03,42.805,6.029,0.004,-0.015,-0.007,101.0,101.0,101.0,13.3,1505.2,326.2,-0.7,1.8,2470.754,13.29,0.015,165.1
2021-06-07T00:52:03,42.805,6.029,0.007,0.012,0.022,101.0,101.0,100.0,13.4,1505.2,329.0,-0.8,1.8,2470.848,13.29,0.013,30.3
2021-06-07T00:55:03,42.805,6.029,-0.024,-0.023,-0.026,102.0,100.0,100.0,13.4,1505.2,326.6,-0.8,1.8,2470.687,13.29,0.033,226.2
2021-06-07T00:58:03,42.805,6.029,0.0,-0.003,0.012,103.0,101.0,101.0,13.4,1505.2,324.7,-0.8,1.9,2470.383,13.29,0.003,180.0
2021-06-07T01:01:03,42.805,6.029,-0.013,-0.006,0.055,100.0,101.0,101.0,13.4,1505.2,328.1,-0.8,1.8,2470.179,13.29,0.014,245.2
2021-06-07T01:04:03,42.805,6.029,-0.01,-0.018,-0.004,116.0,101.0,100.0,13.4,1505.2,329.0,-0.8,1.8,2470.201,13.29,0.02,209.1
2021-06-07T01:07:03,42.805,6.029,-0.019,-0.011,0.012,102.0,100.0,100.0,13.3,1505.2,326.0,-0.8,1.8,2470.198,13.29,0.021,239.9
2021-06-07T01:10:03,42.805,6.029,0.003,-0.004,0.0,102.0,100.0,99.0,13.4,1505.2,326.8,-0.8,1.8,2470.22,13.29,0.005,143.1
2021-06-07T01:13:03,42.805,6.029,-0.018,0.0,0.027,101.0,101.0,100.0,13.4,1505.2,325.5,-0.7,1.8,2470.212,13.29,0.018,270.0
2021-06-07T01:16:03,42.805,6.029,-0.019,0.012,0.007,102.0,105.0,100.0,13.4,1505.2,328.6,-0.7,1.8,2470.266,13.29,0.022,302.3
2021-06-07T01:19:03,42.805,6.029,-0.006,0.002,0.013,101.0,101.0,101.0,13.3,1505.2,327.2,-0.8,1.9,2470.272,13.29,0.006,288.4
2021-06-07T01:22:03,42.805,6.029,-0.019,-0.031,-0.045,100.0,100.0,102.0,13.4,1505.2,329.6,-0.7,1.8,2470.268,13.29,0.036,211.5
2021-06-07T01:25:03,42.805,6.029,-0.004,-0.017,-0.014,100.0,101.0,100.0,13.4,1505.2,325.2,-0.8,1.8,2470.285,13.29,0.017,193.2
2021-06-07T01:28:03,42.805,6.029,0.006,-0.025,0.001,101.0,102.0,101.0,13.4,1505.2,326.4,-0.7,1.9,2470.245,13.29,0.025,166.5
2021-06-07T01:31:03,42.805,6.029,0.003,-0.013,0.006,103.0,103.0,100.0,13.3,1505.2,326.4,-0.8,1.8,2470.29,13.29,0.013,167.0
2021-06-07T01:34:03,42.805,6.029,-0.021,-0.018,-0.015,102.0,101.0,99.0,13.4,1505.2,327.3,-0.7,1.9,2470.29,13.29,0.027,229.4
2021-06-07T01:37:03,42.805,6.029,-0.003,-0.013,0.027,101.0,101.0,102.0,13.4,1505.2,327.9,-0.8,1.9,2470.304,13.29,0.013,193.0
2021-06-07T01:40:03,42.805,6.029,-0.005,-0.025,0.044,102.0,99.0,100.0,13.4,1505.2,329.4,-0.7,1.8,2470.288,13.29,0.025,191.3
2021-06-07T01:43:03,42.805,6.029,0.01,-0.025,0.011,100.0,103.0,99.0,13.4,1505.2,329.3,-0.7,1.8,2470.32,13.29,0.026,158.2
2021-06-07T01:46:03,42.805,6.029,-0.002,-0.011,0.002,100.0,101.0,101.0,13.4,1505.2,328.2,-0.7,1.8,2470.319,13.29,0.011,190.3
2021-06-07T01:49:03,42.805,6.029,0.006,-0.001,0.014,103.0,100.0,101.0,13.4,1505.2,328.3,-0.7,1.8,2470.385,13.29,0.006,99.5
2021-06-07T01:52:03,42.805,6.029,-0.011,-0.034,-0.015,102.0,103.0,99.0,13.3,1505.2,328.2,-0.7,1.8,2470.356,13.29,0.035,197.9
2021-06-07T01:55:03,42.805,6.029,0.004,-0.014,-0.002,101.0,103.0,100.0,13.4,1505.2,327.4,-0.7,1.8,2470.36,13.29,0.014,164.1
2021-06-07T01:58:03,42.805,6.029,-0.032,-0.017,0.003,100.0,103.0,99.0,13.4,1505.2,326.5,-0.8,1.8,2470.356,13.29,0.036,242.0
2021-06-07T02:04:03,42.805,6.029,0.0,-0.015,0.019,99.0,103.0,99.0,13.4,1505.2,326.8,-0.7,1.8,2470.457,13.28,0.015,180.0
2021-06-07T02:07:03,42.805,6.029,-0.03,-0.002,0.051,100.0,102.0,100.0,13.4,1505.2,326.0,-0.8,1.8,2470.473,13.29,0.03,266.2
2021-06-07T02:10:03,42.805,6.029,0.016,-0.025,0.029,101.0,101.0,100.0,13.4,1505.2,326.1,-0.7,1.8,2470.468,13.29,0.029,147.4
2021-06-07T02:13:03,42.805,6.029,-0.016,-0.013,0.002,100.0,103.0,100.0,13.4,1505.2,326.6,-0.7,1.8,2470.4,13.29,0.02,230.9
2021-06-07T02:16:03,42.805,6.029,-0.009,-0.013,0.025,101.0,102.0,99.0,13.3,1505.2,328.4,-0.8,1.8,2470.484,13.29,0.015,214.7
2021-06-07T02:19:03,42.805,6.029,0.0,-0.008,0.01,99.0,104.0,102.0,13.3,1505.2,327.9,-0.8,1.8,2470.515,13.29,0.008,180.0
2021-06-07T02:22:03,42.805,6.029,-0.014,0.005,0.013,102.0,100.0,100.0,13.4,1505.2,325.6,-0.8,1.8,2470.476,13.29,0.014,289.6
2021-06-07T02:25:03,42.805,6.029,0.007,-0.018,0.011,100.0,100.0,101.0,13.4,1505.2,329.9,-0.8,1.8,2470.441,13.29,0.019,158.8
2021-06-07T02:28:03,42.805,6.029,-0.016,-0.009,-0.007,100.0,101.0,101.0,13.3,1505.2,327.8,-0.7,1.8,2470.441,13.29,0.018,240.6
2021-06-07T02:31:03,42.805,6.029,-0.025,-0.017,-0.02,100.0,102.0,99.0,13.3,1505.2,328.4,-0.8,1.8,2470.493,13.29,0.03,235.8
2021-06-07T02:34:03,42.805,6.029,-0.005,-0.013,0.035,99.0,102.0,100.0,13.4,1505.2,325.0,-0.8,1.8,2470.395,13.29,0.013,201.0
2021-06-07T02:37:03,42.805,6.029,-0.01,-0.01,0.003,103.0,101.0,100.0,13.3,1505.2,328.5,-0.7,1.8,2470.252,13.29,0.014,225.0
2021-06-07T02:40:03,42.805,6.029,-0.004,-0.017,0.005,101.0,100.0,99.0,13.4,1505.2,327.6,-0.7,1.8,2470.209,13.29,0.017,193.2
2021-06-07T02:43:03,42.805,6.029,-0.021,-0.031,-0.002,102.0,100.0,100.0,13.4,1505.2,329.1,-0.7,1.8,2470.244,13.29,0.037,214.1
2021-06-07T02:46:03,42.805,6.029,-0.025,-0.003,-0.007,101.0,102.0,101.0,13.4,1505.2,326.1,-0.8,1.8,2470.247,13.29,0.025,263.2
2021-06-07T02:49:03,42.805,6.029,0.006,-0.029,-0.009,99.0,105.0,101.0,13.4,1505.2,326.7,-0.7,1.8,2470.241,13.29,0.029,168.3
2021-06-07T02:52:03,42.805,6.029,-0.015,-0.001,0.007,102.0,100.0,99.0,13.4,1505.2,329.5,-0.8,1.9,2470.266,13.29,0.015,266.2
2021-06-07T02:55:03,42.805,6.029,-0.008,-0.029,-0.012,100.0,102.0,101.0,13.3,1505.2,328.6,-0.8,1.8,2470.28,13.29,0.03,195.4
2021-06-07T02:58:03,42.805,6.029,-0.007,-0.017,-0.009,100.0,101.0,100.0,13.4,1505.2,329.7,-0.7,1.8,2470.293,13.29,0.018,202.4
2021-06-07T03:04:03,42.805,6.029,-0.025,-0.009,-0.012,102.0,101.0,100.0,13.4,1505.2,327.5,-0.7,1.8,2470.313,13.28,0.026,250.2
2021-06-07T03:07:03,42.805,6.029,-0.011,-0.015,-0.024,100.0,102.0,99.0,13.4,1505.2,328.2,-0.7,1.8,2470.36,13.28,0.018,216.3
2021-06-07T03:10:03,42.805,6.029,-0.021,-0.013,-0.013,100.0,101.0,99.0,13.4,1505.2,329.3,-0.8,1.8,2470.384,13.29,0.024,238.2
2021-06-07T03:13:03,42.805,6.029,-0.004,-0.016,-0.009,101.0,102.0,100.0,13.3,1505.2,326.5,-0.8,1.8,2470.33,13.29,0.016,194.0
2021-06-07T03:16:03,42.805,6.029,-0.005,-0.011,0.032,102.0,101.0,100.0,13.3,1505.2,328.6,-0.8,1.8,2470.325,13.29,0.012,204.4
2021-06-07T03:19:03,42.805,6.029,-0.027,-0.007,-0.013,100.0,100.0,101.0,13.3,1505.2,328.2,-0.7,1.8,2470.351,13.29,0.027,255.5
2021-06-07T03:22:03,42.805,6.029,-0.008,-0.011,0.01,100.0,101.0,99.0,13.4,1505.2,327.0,-0.8,1.8,2470.383,13.29,0.013,216.0
2021-06-07T03:25:03,42.805,6.029,-0.007,-0.014,-0.022,101.0,102.0,100.0,13.4,1505.2,328.9,-0.8,1.8,2470.341,13.29,0.015,206.6
2021-06-07T03:28:03,42.805,6.029,-0.007,-0.012,0.011,100.0,102.0,100.0,13.3,1505.2,329.1,-0.8,1.8,2470.385,13.29,0.013,210.3
2021-06-07T03:31:03,42.805,6.029,-0.013,-0.007,-0.016,100.0,102.0,101.0,13.4,1505.2,328.2,-0.8,1.8,2470.361,13.29,0.014,241.7
2021-06-07T03:34:03,42.805,6.029,0.0,-0.016,0.006,101.0,103.0,100.0,13.4,1505.2,326.2,-0.8,1.8,2470.379,13.29,0.016,180.0
2021-06-07T03:37:03,42.805,6.029,-0.007,-0.001,0.039,101.0,102.0,99.0,13.3,1505.2,326.5,-0.8,1.8,2470.359,13.29,0.007,261.9
2021-06-07T03:40:03,42.805,6.029,-0.033,-0.01,0.0,101.0,101.0,98.0,13.4,1505.2,326.0,-0.7,1.8,2470.334,13.29,0.034,253.1
2021-06-07T03:43:03,42.805,6.029,-0.018,-0.023,-0.011,102.0,101.0,99.0,13.3,1505.2,326.0,-0.8,1.8,2470.327,13.29,0.029,218.0
2021-06-07T03:46:03,42.805,6.029,-0.035,-0.024,0.004,101.0,100.0,99.0,13.3,1505.2,329.7,-0.8,1.8,2470.344,13.29,0.042,235.6
2021-06-07T03:49:03,42.805,6.029,-0.005,-0.024,0.011,100.0,101.0,99.0,13.4,1505.2,328.4,-0.7,1.8,2470.326,13.29,0.024,191.8
2021-06-07T03:52:03,42.805,6.029,-0.011,0.005,0.037,101.0,103.0,100.0,13.4,1505.2,329.7,-0.8,1.8,2470.3,13.29,0.012,294.4
2021-06-07T03:55:03,42.805,6.029,0.003,-0.012,0.023,100.0,100.0,100.0,13.3,1505.2,327.7,-0.8,1.8,2470.311,13.29,0.012,166.0
2021-06-07T03:58:03,42.805,6.029,-0.007,-0.011,-0.03,103.0,99.0,100.0,13.4,1505.2,329.1,-0.8,1.8,2470.3,13.29,0.013,212.5
2021-06-07T04:04:03,42.805,6.029,-0.024,-0.004,0.017,100.0,102.0,100.0,13.4,1505.2,326.3,-0.7,1.8,2470.29,13.29,0.024,260.5
2021-06-07T04:07:03,42.805,6.029,-0.013,-0.016,0.017,102.0,102.0,100.0,13.4,1505.2,328.6,-0.7,1.8,2470.329,13.29,0.02,219.1
2021-06-07T04:10:03,42.805,6.029,0.001,-0.005,0.041,101.0,101.0,100.0,13.4,1505.2,329.9,-0.7,1.8,2470.276,13.29,0.005,168.7
2021-06-07T04:13:03,42.805,6.029,-0.025,-0.023,0.011,101.0,102.0,100.0,13.3,1505.2,327.9,-0.7,1.8,2470.293,13.29,0.033,227.4
2021-06-07T04:16:03,42.805,6.029,-0.012,-0.017,0.011,101.0,102.0,99.0,13.4,1505.2,328.3,-0.8,1.8,2470.323,13.29,0.02,215.2
2021-06-07T04:19:03,42.805,6.029,-0.008,-0.032,-0.007,101.0,102.0,100.0,13.3,1505.2,326.4,-0.8,1.9,2470.396,13.29,0.032,194.0
2021-06-07T04:22:03,42.805,6.029,0.0,-0.013,0.028,100.0,102.0,99.0,13.4,1505.2,325.4,-0.8,1.8,2470.333,13.29,0.013,180.0
2021-06-07T04:25:03,42.805,6.029,-0.004,-0.006,0.008,101.0,101.0,100.0,13.3,1505.2,329.4,-0.7,1.9,2470.313,13.29,0.007,213.7
2021-06-07T04:28:03,42.805,6.029,-0.009,-0.019,0.013,101.0,102.0,99.0,13.3,1505.2,329.0,-0.8,1.8,2470.32,13.29,0.021,205.3
2021-06-07T04:31:03,42.805,6.029,-0.015,-0.008,-0.036,100.0,102.0,100.0,13.3,1505.2,329.3,-0.7,1.8,2470.327,13.29,0.017,241.9
2021-06-07T04:34:03,42.805,6.029,-0.02,0.001,0.031,101.0,102.0,100.0,13.4,1505.2,327.7,-0.8,1.8,2470.356,13.29,0.02,272.9
2021-06-07T04:37:03,42.805,6.029,-0.012,-0.019,0.009,102.0,105.0,99.0,13.4,1505.2,329.3,-0.8,1.8,2470.323,13.29,0.022,212.3
2021-06-07T04:40:03,42.805,6.029,-0.015,0.001,0.001,103.0,102.0,100.0,13.4,1505.2,328.2,-0.8,1.8,2470.314,13.29,0.015,273.8
2021-06-07T04:43:03,42.805,6.029,0.005,-0.03,-0.008,101.0,103.0,100.0,13.4,1505.2,328.8,-0.8,1.8,2470.342,13.29,0.03,170.5
2021-06-07T04:46:03,42.805,6.029,-0.018,-0.007,-0.017,101.0,101.0,100.0,13.3,1505.2,324.4,-0.8,1.8,2470.357,13.29,0.019,248.8
2021-06-07T04:49:03,42.805,6.029,-0.012,-0.025,-0.001,100.0,101.0,100.0,13.3,1505.2,328.8,-0.7,1.8,2470.295,13.29,0.027,205.6
2021-06-07T04:52:03,42.805,6.029,-0.023,-0.01,0.012,101.0,101.0,100.0,13.3,1505.2,328.6,-0.7,1.8,2470.318,13.29,0.025,246.5
2021-06-07T04:55:03,42.805,6.029,0.007,-0.005,0.003,101.0,102.0,99.0,13.4,1505.2,328.5,-0.8,1.8,2470.354,13.29,0.008,125.5
2021-06-07T04:58:03,42.805,6.029,0.006,-0.017,0.018,101.0,101.0,100.0,13.3,1505.2,325.9,-0.8,1.8,2470.346,13.29,0.018,160.6
2021-06-07T05:04:03,42.805,6.029,-0.017,-0.016,0.006,101.0,102.0,100.0,13.4,1505.2,324.8,-0.7,1.8,2470.439,13.29,0.023,226.7
2021-06-07T05:07:03,42.805,6.029,-0.006,-0.036,-0.018,101.0,102.0,100.0,13.4,1505.2,325.6,-0.8,1.8,2470.428,13.29,0.036,189.5
2021-06-07T05:10:03,42.805,6.029,-0.025,-0.021,-0.006,102.0,102.0,100.0,13.3,1505.2,325.7,-0.8,1.9,2470.508,13.29,0.032,230.0
2021-06-07T05:13:03,42.805,6.029,-0.004,-0.026,0.001,101.0,101.0,101.0,13.3,1505.2,328.4,-0.7,1.8,2470.418,13.29,0.026,188.7
2021-06-07T05:16:03,42.805,6.029,-0.026,0.0,-0.012,102.0,100.0,100.0,13.4,1505.2,329.3,-0.8,1.8,2470.336,13.29,0.026,270.0
2021-06-07T05:19:03,42.805,6.029,-0.002,-0.014,0.006,103.0,100.0,102.0,13.4,1505.2,324.6,-0.7,1.8,2470.333,13.29,0.014,188.1
2021-06-07T05:22:03,42.805,6.029,-0.011,-0.003,0.039,100.0,102.0,100.0,13.4,1505.2,328.2,-0.8,1.8,2470.385,13.29,0.011,254.7
2021-06-07T05:25:03,42.805,6.029,0.0,-0.001,-0.002,100.0,101.0,100.0,13.3,1505.2,326.7,-0.7,1.9,2470.518,13.29,0.001,180.0
2021-06-07T05:28:03,42.805,6.029,-0.025,0.005,0.03,103.0,101.0,99.0,13.4,1505.2,328.6,-0.8,1.8,2470.564,13.29,0.025,281.3
2021-06-07T05:31:03,42.805,6.029,-0.018,-0.026,-0.008,101.0,101.0,99.0,13.3,1505.2,326.4,-0.7,1.8,2470.168,13.29,0.031,214.7
2021-06-07T05:34:03,42.805,6.029,0.0,-0.015,0.001,101.0,101.0,100.0,13.3,1505.2,328.7,-0.7,1.8,2470.235,13.29,0.015,180.0
2021-06-07T05:37:03,42.805,6.029,-0.033,-0.004,-0.001,100.0,101.0,100.0,13.3,1505.2,329.0,-0.8,1.9,2470.281,13.29,0.033,263.1
2021-06-07T05:40:03,42.805,6.029,-0.017,-0.022,0.0,102.0,101.0,100.0,13.4,1505.2,329.7,-0.7,1.8,2470.273,13.29,0.027,217.7
2021-06-07T05:43:03,42.805,6.029,0.006,-0.017,0.022,101.0,101.0,100.0,13.4,1505.2,327.8,-0.8,1.9,2470.269,13.29,0.018,160.6
2021-06-07T05:46:03,42.805,6.029,-0.016,-0.008,0.015,100.0,102.0,100.0,13.3,1505.2,327.5,-0.8,1.8,2470.367,13.29,0.017,243.4
2021-06-07T05:49:03,42.805,6.029,-0.006,-0.02,0.019,100.0,102.0,99.0,13.3,1505.2,328.4,-0.7,1.8,2470.353,13.29,0.02,196.7
2021-06-07T05:52:03,42.805,6.029,0.011,-0.039,-0.003,101.0,103.0,101.0,13.3,1505.2,326.0,-0.8,1.8,2470.39,13.29,0.04,164.3
2021-06-07T05:55:03,42.805,6.029,-0.016,-0.022,-0.002,99.0,101.0,102.0,13.3,1505.2,329.8,-0.7,1.8,2470.408,13.29,0.027,216.0
2021-06-07T05:58:03,42.805,6.029,-0.006,-0.019,0.01,102.0,101.0,100.0,13.4,1505.2,326.7,-0.7,1.8,2470.475,13.29,0.019,197.5
2021-06-07T06:04:03,42.805,6.029,-0.03,-0.016,0.011,100.0,101.0,100.0,13.4,1505.2,327.2,-0.7,1.8,2470.52,13.29,0.034,241.9
2021-06-07T06:07:03,42.805,6.029,-0.002,-0.005,0.018,99.0,101.0,100.0,13.4,1505.2,329.7,-0.7,1.9,2470.561,13.29,0.005,201.8
2021-06-07T06:10:03,42.805,6.029,-0.029,0.004,0.02,103.0,103.0,100.0,13.4,1505.2,326.7,-0.8,1.8,2470.571,13.29,0.029,277.8
2021-06-07T06:13:03,42.805,6.029,-0.022,-0.035,0.001,101.0,103.0,98.0,13.3,1505.2,327.1,-0.8,1.8,2470.593,13.29,0.041,212.2
2021-06-07T06:16:03,42.805,6.029,-0.016,-0.002,0.006,100.0,103.0,100.0,13.4,1505.2,326.4,-0.8,1.8,2470.626,13.29,0.016,262.9
2021-06-07T06:19:03,42.805,6.029,-0.027,-0.007,-0.021,101.0,103.0,101.0,13.4,1505.2,328.7,-0.8,1.8,2470.623,13.29,0.027,255.5
2021-06-07T06:22:03,42.805,6.029,-0.017,-0.013,0.01,98.0,103.0,101.0,13.4,1505.2,326.9,-0.7,1.8,2470.637,13.29,0.021,232.6
2021-06-07T06:25:03,42.805,6.029,-0.016,-0.01,0.0,100.0,102.0,101.0,13.3,1505.2,327.9,-0.7,1.8,2470.62,13.29,0.018,238.0
2021-06-07T06:28:03,42.805,6.029,-0.026,-0.006,0.0,99.0,103.0,101.0,13.4,1505.2,327.4,-0.8,1.8,2470.593,13.29,0.026,257.0
2021-06-07T06:31:03,42.805,6.029,-0.003,-0.01,-0.006,100.0,104.0,100.0,13.3,1505.2,324.7,-0.7,1.8,2470.559,13.29,0.01,196.7
2021-06-07T06:34:03,42.805,6.029,-0.018,-0.024,0.027,101.0,104.0,100.0,13.4,1505.2,326.4,-0.7,1.8,2470.568,13.29,0.03,216.9
2021-06-07T06:37:03,42.805,6.029,-0.03,-0.019,0.0,102.0,102.0,99.0,13.4,1505.2,326.7,-0.8,1.8,2470.581,13.29,0.035,237.7
2021-06-07T06:40:03,42.805,6.029,-0.018,-0.019,0.0,102.0,104.0,104.0,13.4,1505.2,326.9,-0.7,1.8,2470.569,13.29,0.026,223.5
2021-06-07T06:43:03,42.805,6.029,-0.033,0.006,0.027,101.0,101.0,101.0,13.3,1505.2,330.0,-0.7,1.8,2470.62,13.29,0.033,280.3
2021-06-07T06:46:03,42.805,6.029,-0.033,-0.039,-0.006,101.0,102.0,100.0,13.4,1505.2,326.7,-0.8,1.8,2470.664,13.29,0.051,220.2
2021-06-07T06:49:03,42.805,6.029,-0.012,0.0,0.005,100.0,102.0,103.0,13.4,1505.2,329.3,-0.7,1.8,2470.634,13.29,0.012,270.0
2021-06-07T06:52:03,42.805,6.029,-0.002,-0.008,0.002,103.0,102.0,100.0,13.4,1505.2,325.4,-0.7,1.8,2470.648,13.29,0.008,194.0
2021-06-07T06:55:03,42.805,6.029,-0.016,0.0,0.011,100.0,103.0,100.0,13.4,1505.2,326.6,-0.8,1.8,2470.617,13.29,0.016,270.0
2021-06-07T06:58:03,42.805,6.029,-0.014,0.005,0.018,101.0,101.0,103.0,13.4,1505.2,326.9,-0.7,1.8,2470.588,13.29,0.014,289.6
2021-06-07T07:04:03,42.805,6.029,-0.004,-0.028,-0.01,101.0,102.0,100.0,13.4,1505.2,329.1,-0.7,1.8,2470.621,13.29,0.028,188.1
2021-06-07T07:07:03,42.805,6.029,-0.024,-0.013,-0.009,105.0,100.0,100.0,13.4,1505.2,325.9,-0.8,1.8,2470.59,13.29,0.027,241.6
2021-06-07T07:10:03,42.805,6.029,-0.017,-0.013,-0.002,101.0,103.0,100.0,13.4,1505.2,329.8,-0.8,1.8,2470.649,13.29,0.021,232.6
2021-06-07T07:13:03,42.805,6.029,-0.03,-0.005,-0.006,101.0,106.0,100.0,13.4,1505.2,324.7,-0.8,1.8,2470.64,13.29,0.03,260.5
2021-06-07T07:16:03,42.805,6.029,0.002,-0.011,0.016,101.0,102.0,100.0,13.4,1505.2,328.2,-0.8,1.8,2470.644,13.29,0.011,169.7
2021-06-07T07:19:03,42.805,6.029,-0.015,-0.029,-0.007,102.0,101.0,100.0,13.4,1505.2,326.5,-0.8,1.8,2470.382,13.29,0.032,207.4
2021-06-07T07:22:03,42.805,6.029,0.0,-0.005,0.042,102.0,101.0,101.0,13.4,1505.2,328.1,-0.7,1.8,2470.399,13.29,0.005,180.0
2021-06-07T07:25:03,42.805,6.029,-0.025,-0.022,0.031,102.0,101.0,101.0,13.3,1505.2,324.6,-0.8,1.8,2470.324,13.29,0.033,228.7
2021-06-07T07:28:03,42.805,6.029,-0.005,-0.019,0.001,102.0,104.0,101.0,13.4,1505.2,327.7,-0.7,1.8,2470.311,13.29,0.019,194.7
2021-06-07T07:31:03,42.805,6.029,-0.034,-0.005,-0.048,100.0,101.0,100.0,13.3,1505.2,328.4,-0.8,1.8,2470.26,13.29,0.034,261.6
2021-06-07T07:34:03,42.805,6.029,-0.011,-0.002,-0.003,103.0,100.0,100.0,13.4,1505.2,327.8,-0.7,1.8,2470.245,13.29,0.011,259.7
2021-06-07T07:37:03,42.805,6.029,-0.003,-0.018,0.027,100.0,102.0,100.0,13.4,1505.2,329.0,-0.7,1.8,2470.227,13.29,0.018,189.5
2021-06-07T07:40:03,42.805,6.029,-0.025,-0.023,-0.006,102.0,101.0,101.0,13.4,1505.2,328.9,-0.8,1.8,2470.242,13.29,0.033,227.4
2021-06-07T07:43:03,42.805,6.029,-0.018,-0.006,0.019,102.0,100.0,100.0,13.4,1505.2,328.9,-0.7,1.8,2470.287,13.29,0.018,251.6
2021-06-07T07:46:03,42.805,6.029,-0.026,-0.007,-0.007,102.0,101.0,101.0,13.4,1505.2,325.8,-0.8,1.9,2470.326,13.29,0.026,254.9
2021-06-07T07:49:03,42.805,6.029,0.003,-0.031,-0.017,103.0,99.0,101.0,13.4,1505.2,329.5,-0.8,1.8,2470.325,13.29,0.031,174.5
2021-06-07T07:52:03,42.805,6.029,-0.014,-0.019,-0.001,100.0,102.0,101.0,13.4,1505.2,327.2,-0.7,1.8,2470.31,13.29,0.023,216.4
2021-06-07T07:55:03,42.805,6.029,-0.012,-0.017,-0.006,102.0,101.0,100.0,13.4,1505.2,324.7,-0.8,1.9,2470.284,13.29,0.02,215.2
2021-06-07T07:58:03,42.805,6.029,0.003,-0.006,0.025,100.0,101.0,100.0,13.4,1505.2,326.8,-0.7,1.8,2470.314,13.29,0.006,153.4
2021-06-07T08:04:03,42.805,6.029,-0.026,0.002,0.006,101.0,101.0,100.0,13.3,1505.2,326.7,-0.8,1.8,2470.196,13.29,0.026,274.4
2021-06-07T08:07:03,42.805,6.029,-0.034,-0.002,0.03,101.0,101.0,100.0,13.4,1505.2,329.4,-0.7,1.8,2470.183,13.29,0.034,266.6
2021-06-07T08:10:03,42.805,6.029,-0.021,0.0,-0.007,100.0,101.0,100.0,13.4,1505.2,327.6,-0.8,1.8,2470.15,13.29,0.021,270.0
2021-06-07T08:13:03,42.805,6.029,-0.034,-0.024,0.0,101.0,101.0,101.0,13.4,1505.2,328.7,-0.7,1.8,2470.167,13.29,0.041,234.8
2021-06-07T08:16:03,42.805,6.029,-0.022,-0.016,-0.011,102.0,101.0,99.0,13.3,1505.2,326.0,-0.7,1.8,2470.145,13.29,0.027,234.0
2021-06-07T08:19:03,42.805,6.029,-0.01,-0.02,-0.019,101.0,102.0,100.0,13.4,1505.2,325.9,-0.8,1.8,2470.165,13.29,0.022,206.6
2021-06-07T08:22:03,42.805,6.029,0.013,-0.017,0.002,102.0,101.0,100.0,13.4,1505.2,326.3,-0.8,1.8,2470.154,13.29,0.021,142.6
2021-06-07T08:25:03,42.805,6.029,-0.008,-0.024,0.002,100.0,102.0,100.0,13.3,1505.2,327.2,-0.7,1.8,2470.151,13.29,0.025,198.4
2021-06-07T08:28:03,42.805,6.029,-0.015,-0.002,0.004,101.0,101.0,101.0,13.4,1505.2,325.1,-0.7,1.8,2470.208,13.29,0.015,262.4
2021-06-07T08:31:03,42.805,6.029,-0.029,-0.004,0.007,99.0,100.0,100.0,13.4,1505.2,327.5,-0.8,1.8,2470.179,13.29,0.029,262.2
2021-06-07T08:34:03,42.805,6.029,-0.026,-0.032,0.002,102.0,103.0,100.0,13.3,1505.2,326.4,-0.7,1.8,2470.168,13.29,0.041,219.1
2021-06-07T08:37:03,42.805,6.029,-0.013,-0.007,0.016,102.0,100.0,101.0,13.4,1505.2,329.9,-0.8,1.8,2470.096,13.29,0.014,241.7
2021-06-07T08:40:03,42.805,6.029,0.001,-0.016,-0.007,102.0,100.0,101.0,13.4,1505.2,327.9,-0.8,1.8,2470.142,13.29,0.016,176.4
2021-06-07T08:43:03,42.805,6.029,-0.012,0.004,0.012,99.0,101.0,108.0,13.4,1505.2,329.5,-0.7,1.8,2470.246,13.29,0.012,288.4
2021-06-07T08:46:03,42.805,6.029,-0.007,-0.005,0.002,100.0,103.0,101.0,13.4,1505.2,328.2,-0.7,1.8,2470.22,13.29,0.008,234.5
2021-06-07T08:49:03,42.805,6.029,-0.014,-0.005,-0.008,102.0,100.0,100.0,13.4,1505.2,328.3,-0.8,1.8,2470.249,13.29,0.014,250.4
2021-06-07T08:52:03,42.805,6.029,-0.02,0.008,0.018,101.0,100.0,100.0,13.4,1505.2,325.4,-0.8,1.8,2470.263,13.29,0.021,291.8
2021-06-07T08:55:03,42.805,6.029,-0.021,-0.029,-0.012,100.0,102.0,100.0,13.3,1505.2,329.3,-0.8,1.8,2470.274,13.29,0.035,215.9
2021-06-07T08:58:03,42.805,6.029,-0.004,-0.026,-0.008,99.0,102.0,101.0,13.3,1505.2,324.8,-0.8,1.8,2470.317,13.29,0.026,188.7
2021-06-07T09:04:03,42.805,6.029,-0.011,-0.01,-0.001,102.0,101.0,101.0,13.3,1505.2,324.8,-0.7,1.8,2470.306,13.29,0.014,227.7
2021-06-07T09:07:03,42.805,6.029,0.001,-0.022,0.029,101.0,101.0,100.0,13.4,1505.2,325.3,-0.7,1.8,2470.3,13.29,0.022,177.4
2021-06-07T09:10:03,42.805,6.029,-0.038,-0.018,-0.013,101.0,101.0,100.0,13.3,1505.2,325.1,-0.7,1.8,2470.308,13.29,0.042,244.7
2021-06-07T09:13:03,42.805,6.029,-0.015,-0.039,-0.011,100.0,102.0,101.0,13.3,1505.2,329.2,-0.8,1.8,2470.299,13.29,0.041,201.0
2021-06-07T09:16:03,42.805,6.029,-0.006,0.007,-0.015,101.0,102.0,101.0,13.3,1505.2,326.0,-0.8,1.8,2470.331,13.29,0.009,319.4
2021-06-07T09:19:03,42.805,6.029,-0.025,-0.022,-0.005,100.0,103.0,99.0,13.4,1505.2,324.7,-0.7,1.8,2470.322,13.29,0.033,228.7
2021-06-07T09:22:03,42.805,6.029,0.001,-0.017,0.005,100.0,101.0,99.0,13.3,1505.2,326.4,-0.8,1.8,2470.288,13.29,0.017,176.6
2021-06-07T09:25:03,42.805,6.029,-0.026,-0.019,0.034,101.0,102.0,100.0,13.3,1505.2,328.4,-0.7,1.8,2470.28,13.29,0.032,233.8
2021-06-07T09:28:03,42.805,6.029,-0.021,-0.008,0.013,104.0,99.0,100.0,13.4,1505.2,326.9,-0.8,1.8,2470.293,13.29,0.022,249.1
2021-06-07T09:31:03,42.805,6.029,-0.028,-0.009,-0.001,100.0,101.0,100.0,13.4,1505.2,328.9,-0.8,1.8,2470.278,13.29,0.029,252.2
2021-06-07T09:34:03,42.805,6.029,-0.019,-0.033,-0.014,99.0,101.0,101.0,13.4,1505.2,324.9,-0.7,1.8,2470.222,13.29,0.038,209.9
2021-06-07T09:37:03,42.805,6.029,-0.002,-0.002,0.017,101.0,100.0,101.0,13.4,1505.2,326.7,-0.8,1.8,2470.283,13.29,0.002,225.0
2021-06-07T09:40:03,42.805,6.029,-0.019,-0.011,-0.008,103.0,102.0,100.0,13.4,1505.2,326.0,-0.8,1.8,2470.274,13.29,0.021,239.9
2021-06-07T09:43:03,42.805,6.029,-0.019,-0.018,0.003,101.0,102.0,101.0,13.3,1505.2,328.6,-0.8,1.9,2470.307,13.29,0.026,226.5
2021-06-07T09:46:03,42.805,6.029,-0.006,0.012,0.005,103.0,101.0,101.0,13.4,1505.2,326.1,-0.8,1.8,2470.17,13.29,0.013,333.4
2021-06-07T09:49:03,42.805,6.029,-0.029,0.002,-0.007,103.0,102.0,100.0,13.4,1505.2,330.1,-0.8,1.8,2470.153,13.29,0.029,273.9
2021-06-07T09:52:03,42.805,6.029,-0.003,0.0,0.003,102.0,100.0,100.0,13.3,1505.2,326.5,-0.8,1.8,2470.267,13.29,0.003,270.0